This is the latest recevied weather packets stored in our database for station/object G4KVI. If no packets are shown the sender has not sent any weather packets the latest 10 day(s).
| Time | Temp. | Humidity | Pressure | Rain* | Wind** | Luminosity | Snow |
|---|---|---|---|---|---|---|---|
| 1777888504 | 13.33° C | 84% | 1016.4 hPa | 0 mm | - | 180 W/m² | - |
| 1777888204 | 13.33° C | 84% | 1016.1 hPa | 0 mm | - | 247 W/m² | - |
| 1777887904 | 13.33° C | 86% | 1016.3 hPa | 0 mm | - | 313 W/m² | - |
| 1777887604 | 13.33° C | 87% | 1016.3 hPa | 0 mm | - | 239 W/m² | - |
| 1777887304 | 12.78° C | 88% | 1016.4 hPa | 0 mm | - | 145 W/m² | - |
| 1777887004 | 12.78° C | 89% | 1016.4 hPa | 0 mm | - | 125 W/m² | - |
| 1777886704 | 12.78° C | 89% | 1016.3 hPa | 0 mm | - | 196 W/m² | - |
| 1777886404 | 12.78° C | 89% | 1016.3 hPa | 0 mm | - | 226 W/m² | - |
| 1777886104 | 12.78° C | 90% | 1016.1 hPa | 0 mm | - | 232 W/m² | - |
| 1777885804 | 12.78° C | 90% | 1016.4 hPa | 0 mm | - | 203 W/m² | - |
| 1777885504 | 12.78° C | 90% | 1016.3 hPa | 0 mm | - | 131 W/m² | - |
| 1777885204 | 12.78° C | 91% | 1016.2 hPa | 0 mm | - | 126 W/m² | - |
| 1777884904 | 12.78° C | 91% | 1016.3 hPa | 0 mm | - | 133 W/m² | - |
| 1777884604 | 12.22° C | 90% | 1016.2 hPa | 0 mm | - | 128 W/m² | - |
| 1777884304 | 12.22° C | 90% | 1016.2 hPa | 0 mm | - | 145 W/m² | - |
| 1777884004 | 12.22° C | 89% | 1016.3 hPa | 0 mm | - | 62 W/m² | - |
| 1777883704 | 12.22° C | 89% | 1016.3 hPa | 0 mm | - | 89 W/m² | - |
| 1777883403 | 12.22° C | 89% | 1016.1 hPa | 0 mm | - | 82 W/m² | - |
| 1777883103 | 12.22° C | 88% | 1015.9 hPa | 0 mm | - | 69 W/m² | - |
| 1777882804 | 12.22° C | 89% | 1016 hPa | 0 mm | - | 79 W/m² | - |
| 1777882504 | 12.22° C | 89% | 1016 hPa | 0 mm | - | 99 W/m² | - |
| 1777882204 | 12.22° C | 90% | 1015.8 hPa | 0 mm | - | 131 W/m² | - |
| 1777881903 | 12.22° C | 91% | 1015.9 hPa | 0 mm | - | 162 W/m² | - |
| 1777881603 | 11.67° C | 91% | 1015.9 hPa | 0 mm | - | 138 W/m² | - |
| 1777881304 | 12.22° C | 92% | 1015.9 hPa | 0 mm | - | 104 W/m² | - |
* Rain latest hour (hover to see other rain measurements)
** Current wind speed in m/s (hover to see current wind gust speed)